Location: Birkenwerder
(52.6919°N, 13.2774°E)
Time: 12:59:27
(UTC+00:00)

Resurs 1-4 Rocket - Pass Details

Date: 07 June 2020
Orbit: 800 x 813 km, 98.6° (Epoch: 11 July)

Event Time Altitude Azimuth Distance (km) Brightness Sun altitude
Rises 01:31:50 0° 12° (NNE) 3,339 6.8 -8.1°
Reaches altitude 10° 01:34:13 10° 9° (N) 2,406 5.8 -7.9°
Maximum altitude 01:39:24 56° 293° (WNW) 966 2.5 -7.5°
Drops below altitude 10° 01:44:34 10° 216° (SW) 2,397 3.9 -7.0°
Enters shadow 01:44:54 - 215° (SW) 2,525 4.0 -7.0°
